Time,TemperatureF,DewpointF,PressureIn,WindDirection,WindDirectionDegrees,WindSpeedMPH,WindSpeedGustMPH,Humidity,HourlyPrecipIn,Conditions,Clouds,dailyrainin,SoftwareType,DateUTC
2013-01-01 00:01:00,29.1,29.1,30.47,WSW,257,0.0,0.0,100,0.00,CLR,,0.00,WeatherDisplay:10.37,2013-01-01 08:01:00,
2013-01-01 00:11:00,29.3,29.3,30.46,WSW,257,0.0,0.0,100,0.00,CLR,,0.00,WeatherDisplay:10.37,2013-01-01 08:11:00,
2013-01-01 00:16:00,29.4,29.4,30.47,WSW,257,0.0,0.0,100,0.00,CLR,,0.00,WeatherDisplay:10.37,2013-01-01 08:16:00,
2013-01-01 00:21:00,29.4,29.4,30.47,WSW,257,0.0,1.0,100,0.00,CLR,,0.00,WeatherDisplay:10.37,2013-01-01 08:21:00,
2013-01-01 00:26:00,29.1,29.1,30.48,WSW,257,0.0,0.0,100,0.00,CLR,,0.00,WeatherDisplay:10.37,2013-01-01 08:26:00,
2013-01-01 00:31:00,28.9,28.9,30.48,WSW,257,0.0,0.0,100,0.00,CLR,,0.00,WeatherDisplay:10.37,2013-01-01 08:31:00,
2013-01-01 00:36:00,28.7,28.7,30.48,WSW,257,0.0,0.0,100,0.00,CLR,,0.00,WeatherDisplay:10.37,2013-01-01 08:36:00,
2013-01-01 00:41:00,28.6,28.6,30.48,WSW,257,0.0,0.0,100,0.00,CLR,,0.00,WeatherDisplay:10.37,2013-01-01 08:41:00,
2013-01-01 00:46:00,28.5,28.5,30.48,WSW,257,0.0,0.0,100,0.00,BKN,,0.00,WeatherDisplay:10.37,2013-01-01 08:46:00,
2013-01-01 00:51:00,28.4,28.4,30.48,WSW,257,0.0,0.0,100,0.00,BKN,,0.00,WeatherDisplay:10.37,2013-01-01 08:51:00,
2013-01-01 00:56:00,28.3,28.3,30.48,WSW,257,0.0,0.0,100,0.00,BKN,,0.00,WeatherDisplay:10.37,2013-01-01 08:56:00,
2013-01-01 01:01:00,28.2,28.2,30.47,WSW,257,0.0,0.0,100,0.00,BKN,,0.00,WeatherDisplay:10.37,2013-01-01 09:01:00,
2013-01-01 01:11:00,28.1,28.1,30.48,WSW,257,0.0,0.0,100,0.00,BKN,,0.00,WeatherDisplay:10.37,2013-01-01 09:11:00,
2013-01-01 01:16:00,28.0,28.0,30.48,WSW,257,0.0,0.0,100,0.00,OVC,,0.00,WeatherDisplay:10.37,2013-01-01 09:16:00,
2013-01-01 01:21:00,28.1,28.1,30.48,WSW,257,0.0,1.0,100,0.00,OVC,,0.00,WeatherDisplay:10.37,2013-01-01 09:21:00,
2013-01-01 01:26:00,28.0,28.0,30.48,WSW,257,0.0,1.0,100,0.00,OVC,,0.00,WeatherDisplay:10.37,2013-01-01 09:26:00,
2013-01-01 01:31:00,28.1,28.1,30.48,West,276,0.0,2.0,100,0.00,OVC,,0.00,WeatherDisplay:10.37,2013-01-01 09:31:00,
2013-01-01 01:36:00,28.1,28.1,30.49,NNW,335,0.0,0.0,100,0.00,OVC,,0.00,WeatherDisplay:10.37,2013-01-01 09:36:00,
2013-01-01 01:41:00,28.0,28.0,30.49,NNW,335,0.0,0.0,100,0.00,OVC,,0.00,WeatherDisplay:10.37,2013-01-01 09:41:00,
2013-01-01 01:46:00,28.0,28.0,30.49,NW,310,0.0,1.0,100,0.00,FEW,,0.00,WeatherDisplay:10.37,2013-01-01 09:46:00,
2013-01-01 01:51:00,28.1,28.1,30.49,West,279,0.0,1.0,100,0.00,FEW,,0.00,WeatherDisplay:10.37,2013-01-01 09:51:00,
2013-01-01 01:56:00,28.1,27.4,30.49,West,281,0.0,1.0,97,0.00,FEW,,0.00,WeatherDisplay:10.37,2013-01-01 09:56:00,
2013-01-01 02:01:00,28.1,27.4,30.49,WNW,283,0.0,1.0,97,0.00,CLR,,0.00,WeatherDisplay:10.37,2013-01-01 10:01:00,
2013-01-01 02:11:00,27.9,27.2,30.49,WNW,285,0.0,1.0,97,0.00,CLR,,0.00,WeatherDisplay:10.37,2013-01-01 10:11:00,
2013-01-01 02:16:00,28.0,27.3,30.49,WNW,285,0.0,1.0,97,0.00,CLR,,0.00,WeatherDisplay:10.37,2013-01-01 10:16:00,
2013-01-01 02:21:00,28.0,27.3,30.49,WSW,255,0.0,1.0,97,0.00,CLR,,0.00,WeatherDisplay:10.37,2013-01-01 10:21:00,
2013-01-01 02:26:00,28.0,27.0,30.50,SW,221,0.0,1.0,96,0.00,CLR,,0.00,WeatherDisplay:10.37,2013-01-01 10:26:00,
2013-01-01 02:31:00,28.0,27.0,30.50,SW,234,0.0,1.0,96,0.00,CLR,,0.00,WeatherDisplay:10.37,2013-01-01 10:31:00,
2013-01-01 02:36:00,28.2,27.0,30.50,West,263,0.0,1.0,95,0.00,CLR,,0.00,WeatherDisplay:10.37,2013-01-01 10:36:00,
2013-01-01 02:41:00,28.1,26.9,30.50,West,273,0.0,1.0,95,0.00,CLR,,0.00,WeatherDisplay:10.37,2013-01-01 10:41:00,
2013-01-01 02:46:00,28.1,26.9,30.50,West,275,0.0,0.0,95,0.00,CLR,,0.00,WeatherDisplay:10.37,2013-01-01 10:46:00,
2013-01-01 02:51:00,27.9,26.7,30.50,West,276,0.0,0.0,95,0.00,CLR,,0.00,WeatherDisplay:10.37,2013-01-01 10:51:00,
2013-01-01 02:56:00,27.8,26.6,30.50,West,276,0.0,0.0,95,0.00,CLR,,0.00,WeatherDisplay:10.37,2013-01-01 10:56:00,
2013-01-01 03:01:00,27.8,26.6,30.50,West,277,0.0,1.0,95,0.00,CLR,,0.00,WeatherDisplay:10.37,2013-01-01 11:01:00,
2013-01-01 03:11:00,27.6,26.4,30.50,West,276,0.0,0.0,95,0.00,CLR,,0.00,WeatherDisplay:10.37,2013-01-01 11:11:00,
2013-01-01 03:16:00,27.4,26.2,30.50,West,276,0.0,0.0,95,0.00,CLR,,0.00,WeatherDisplay:10.37,2013-01-01 11:16:00,
2013-01-01 03:21:00,27.5,26.5,30.50,West,277,0.0,0.0,96,0.00,CLR,,0.00,WeatherDisplay:10.37,2013-01-01 11:21:00,
2013-01-01 03:26:00,27.3,26.3,30.50,West,277,0.0,0.0,96,0.00,CLR,,0.00,WeatherDisplay:10.37,2013-01-01 11:26:00,
2013-01-01 03:31:00,27.3,26.3,30.49,West,277,0.0,0.0,96,0.00,CLR,,0.00,WeatherDisplay:10.37,2013-01-01 11:31:00,
2013-01-01 03:36:00,27.1,26.1,30.49,West,277,0.0,0.0,96,0.00,CLR,,0.00,WeatherDisplay:10.37,2013-01-01 11:36:00,
2013-01-01 03:41:00,27.0,26.0,30.49,West,276,0.0,1.0,96,0.00,CLR,,0.00,WeatherDisplay:10.37,2013-01-01 11:41:00,
2013-01-01 03:46:00,27.0,26.0,30.48,West,277,0.0,0.0,96,0.00,CLR,,0.00,WeatherDisplay:10.37,2013-01-01 11:46:00,
2013-01-01 03:51:00,26.9,25.9,30.48,West,277,0.0,0.0,96,0.00,CLR,,0.00,WeatherDisplay:10.37,2013-01-01 11:51:00,
2013-01-01 03:56:00,27.0,26.3,30.48,West,277,0.0,0.0,97,0.00,CLR,,0.00,WeatherDisplay:10.37,2013-01-01 11:56:00,
2013-01-01 04:01:00,27.1,26.3,30.48,West,277,0.0,0.0,97,0.00,CLR,,0.00,WeatherDisplay:10.37,2013-01-01 12:01:00,
2013-01-01 04:11:00,26.9,26.2,30.48,West,277,0.0,0.0,97,0.00,CLR,,0.00,WeatherDisplay:10.37,2013-01-01 12:11:00,
2013-01-01 04:16:00,26.9,26.2,30.48,West,277,0.0,0.0,97,0.00,CLR,,0.00,WeatherDisplay:10.37,2013-01-01 12:16:00,
2013-01-01 04:21:00,26.7,26.0,30.48,West,277,0.0,0.0,97,0.00,CLR,,0.00,WeatherDisplay:10.37,2013-01-01 12:21:00,
2013-01-01 04:31:00,26.5,25.8,30.47,West,277,0.0,0.0,97,0.00,CLR,,0.00,WeatherDisplay:10.37,2013-01-01 12:31:00,
2013-01-01 04:36:00,26.5,25.8,30.47,West,277,0.0,0.0,97,0.00,CLR,,0.00,WeatherDisplay:10.37,2013-01-01 12:36:00,
2013-01-01 04:41:00,26.7,26.0,30.47,West,277,0.0,0.0,97,0.00,CLR,,0.00,WeatherDisplay:10.37,2013-01-01 12:41:00,
2013-01-01 04:46:00,26.7,26.0,30.47,West,277,0.0,0.0,97,0.00,CLR,,0.00,WeatherDisplay:10.37,2013-01-01 12:46:00,
2013-01-01 04:51:00,26.5,25.8,30.46,West,276,0.0,0.0,97,0.00,CLR,,0.00,WeatherDisplay:10.37,2013-01-01 12:51:00,
2013-01-01 04:56:00,26.3,25.6,30.46,West,277,0.0,0.0,97,0.00,CLR,,0.00,WeatherDisplay:10.37,2013-01-01 12:56:00,
2013-01-01 05:01:00,26.5,25.7,30.46,West,277,0.0,0.0,97,0.00,CLR,,0.00,WeatherDisplay:10.37,2013-01-01 13:01:00,
2013-01-01 05:11:00,26.5,25.8,30.46,West,277,0.0,0.0,97,0.00,CLR,,0.00,WeatherDisplay:10.37,2013-01-01 13:11:00,
2013-01-01 05:16:00,26.2,25.5,30.46,West,277,0.0,0.0,97,0.00,CLR,,0.00,WeatherDisplay:10.37,2013-01-01 13:16:00,
2013-01-01 05:21:00,26.0,25.3,30.45,West,277,0.0,0.0,97,0.00,CLR,,0.00,WeatherDisplay:10.37,2013-01-01 13:21:00,
2013-01-01 05:26:00,25.9,25.2,30.45,West,276,0.0,0.0,97,0.00,CLR,,0.00,WeatherDisplay:10.37,2013-01-01 13:26:00,
2013-01-01 05:31:00,26.1,26.1,30.45,West,276,0.0,0.0,100,0.00,CLR,,0.00,WeatherDisplay:10.37,2013-01-01 13:31:00,
2013-01-01 05:36:00,26.2,26.2,30.45,West,277,0.0,0.0,100,0.00,CLR,,0.00,WeatherDisplay:10.37,2013-01-01 13:36:00,
2013-01-01 05:41:00,26.5,26.5,30.45,West,273,0.0,0.0,100,0.00,CLR,,0.00,WeatherDisplay:10.37,2013-01-01 13:41:00,
2013-01-01 05:46:00,26.6,26.6,30.45,West,269,0.0,0.0,100,0.00,CLR,,0.00,WeatherDisplay:10.37,2013-01-01 13:46:00,
2013-01-01 05:51:00,26.5,25.7,30.45,West,269,0.0,0.0,97,0.00,CLR,,0.00,WeatherDisplay:10.37,2013-01-01 13:51:00,
2013-01-01 05:56:00,26.4,25.6,30.46,West,269,0.0,0.0,97,0.00,CLR,,0.00,WeatherDisplay:10.37,2013-01-01 13:56:00,
2013-01-01 06:01:00,26.2,25.5,30.46,West,269,0.0,0.0,97,0.00,CLR,,0.00,WeatherDisplay:10.37,2013-01-01 14:01:00,
2013-01-01 06:11:00,26.1,25.4,30.46,West,269,0.0,0.0,97,0.00,CLR,,0.00,WeatherDisplay:10.37,2013-01-01 14:11:00,
2013-01-01 06:16:00,25.9,25.2,30.46,West,269,0.0,0.0,97,0.00,CLR,,0.00,WeatherDisplay:10.37,2013-01-01 14:16:00,
2013-01-01 06:21:00,25.8,25.1,30.46,West,269,0.0,0.0,97,0.00,CLR,,0.00,WeatherDisplay:10.37,2013-01-01 14:21:00,
2013-01-01 06:26:00,25.8,25.1,30.46,West,269,0.0,0.0,97,0.00,CLR,,0.00,WeatherDisplay:10.37,2013-01-01 14:26:00,
2013-01-01 06:31:00,25.7,25.0,30.46,West,269,0.0,0.0,97,0.00,CLR,,0.00,WeatherDisplay:10.37,2013-01-01 14:31:00,
2013-01-01 06:36:00,25.7,25.0,30.46,West,269,0.0,0.0,97,0.00,CLR,,0.00,WeatherDisplay:10.37,2013-01-01 14:36:00,
2013-01-01 06:41:00,25.5,24.8,30.46,West,269,0.0,0.0,97,0.00,CLR,,0.00,WeatherDisplay:10.37,2013-01-01 14:41:00,
2013-01-01 06:46:00,25.3,24.6,30.46,West,269,0.0,0.0,97,0.00,CLR,,0.00,WeatherDisplay:10.37,2013-01-01 14:46:00,
2013-01-01 06:51:00,25.2,24.5,30.46,West,269,0.0,0.0,97,0.00,CLR,,0.00,WeatherDisplay:10.37,2013-01-01 14:51:00,
2013-01-01 06:56:00,25.1,24.4,30.46,West,269,0.0,0.0,97,0.00,CLR,,0.00,WeatherDisplay:10.37,2013-01-01 14:56:00,
2013-01-01 07:01:00,25.2,24.5,30.46,West,269,0.0,0.0,97,0.00,CLR,,0.00,WeatherDisplay:10.37,2013-01-01 15:01:00,
2013-01-01 07:11:00,25.3,24.8,30.46,West,269,0.0,0.0,98,0.00,CLR,,0.00,WeatherDisplay:10.37,2013-01-01 15:11:00,
2013-01-01 07:16:00,25.2,24.5,30.46,West,269,0.0,0.0,97,0.00,CLR,,0.00,WeatherDisplay:10.37,2013-01-01 15:16:00,
2013-01-01 07:21:00,25.1,24.4,30.46,West,269,0.0,1.0,97,0.00,CLR,,0.00,WeatherDisplay:10.37,2013-01-01 15:21:00,
2013-01-01 07:26:00,25.1,24.4,30.46,West,269,0.0,0.0,97,0.00,CLR,,0.00,WeatherDisplay:10.37,2013-01-01 15:26:00,
2013-01-01 07:31:00,25.0,24.3,30.46,West,269,0.0,0.0,97,0.00,CLR,,0.00,WeatherDisplay:10.37,2013-01-01 15:31:00,
2013-01-01 07:36:00,24.8,24.1,30.47,West,269,0.0,0.0,97,0.00,CLR,,0.00,WeatherDisplay:10.37,2013-01-01 15:36:00,
2013-01-01 07:41:00,24.9,24.2,30.47,West,269,0.0,0.0,97,0.00,CLR,,0.00,WeatherDisplay:10.37,2013-01-01 15:41:00,
2013-01-01 07:46:00,25.0,24.8,30.47,West,269,0.0,0.0,99,0.00,CLR,,0.00,WeatherDisplay:10.37,2013-01-01 15:46:00,
2013-01-01 07:51:00,25.1,25.1,30.48,West,269,0.0,0.0,100,0.00,CLR,,0.00,WeatherDisplay:10.37,2013-01-01 15:51:00,
2013-01-01 07:56:00,25.1,25.1,30.48,West,269,0.0,0.0,100,0.00,CLR,,0.00,WeatherDisplay:10.37,2013-01-01 15:56:00,
2013-01-01 08:01:00,25.2,25.2,30.48,West,269,0.0,0.0,100,0.00,CLR,,0.00,WeatherDisplay:10.37,2013-01-01 16:01:00,
2013-01-01 08:11:00,25.2,25.2,30.49,West,269,0.0,0.0,100,0.00,CLR,,0.00,WeatherDisplay:10.37,2013-01-01 16:11:00,
2013-01-01 08:16:00,25.3,25.3,30.49,West,269,0.0,0.0,100,0.00,CLR,,0.00,WeatherDisplay:10.37,2013-01-01 16:16:00,
2013-01-01 08:21:00,25.3,25.3,30.50,West,269,0.0,0.0,100,0.00,CLR,,0.00,WeatherDisplay:10.37,2013-01-01 16:21:00,
2013-01-01 08:26:00,25.7,25.7,30.50,West,273,0.0,1.0,100,0.00,CLR,,0.00,WeatherDisplay:10.37,2013-01-01 16:26:00,
2013-01-01 08:31:00,25.9,25.9,30.51,WNW,290,0.0,0.0,100,0.00,CLR,,0.00,WeatherDisplay:10.37,2013-01-01 16:31:00,
2013-01-01 08:36:00,26.0,26.0,30.51,NW,304,0.0,0.0,100,0.00,CLR,,0.00,WeatherDisplay:10.37,2013-01-01 16:36:00,
2013-01-01 08:41:00,25.9,25.9,30.51,NW,304,0.0,0.0,100,0.00,CLR,,0.00,WeatherDisplay:10.37,2013-01-01 16:41:00,
2013-01-01 08:46:00,25.8,25.8,30.51,NW,304,0.0,0.0,100,0.00,CLR,,0.00,WeatherDisplay:10.37,2013-01-01 16:46:00,
2013-01-01 08:51:00,25.7,25.7,30.51,NW,304,0.0,0.0,100,0.00,CLR,,0.00,WeatherDisplay:10.37,2013-01-01 16:51:00,
2013-01-01 08:56:00,25.8,25.8,30.51,NW,304,0.0,0.0,100,0.00,CLR,,0.00,WeatherDisplay:10.37,2013-01-01 16:56:00,
2013-01-01 09:01:00,26.0,26.0,30.51,NW,304,0.0,0.0,100,0.00,CLR,,0.00,WeatherDisplay:10.37,2013-01-01 17:01:00,
2013-01-01 09:11:00,26.4,26.4,30.51,WNW,303,0.0,0.0,100,0.00,CLR,,0.00,WeatherDisplay:10.37,2013-01-01 17:11:00,
2013-01-01 09:16:00,26.6,26.6,30.51,WNW,303,0.0,0.0,100,0.00,CLR,,0.00,WeatherDisplay:10.37,2013-01-01 17:16:00,
2013-01-01 09:26:00,27.0,27.0,30.51,SW,235,0.0,1.0,100,0.00,CLR,,0.00,WeatherDisplay:10.37,2013-01-01 17:26:00,
2013-01-01 09:31:00,27.5,27.5,30.51,NNW,345,0.0,2.0,100,0.00,CLR,,0.00,WeatherDisplay:10.37,2013-01-01 17:31:00,
2013-01-01 09:36:00,27.9,27.9,30.51,North,352,0.0,0.0,100,0.00,CLR,,0.00,WeatherDisplay:10.37,2013-01-01 17:36:00,
2013-01-01 09:41:00,28.3,28.3,30.50,North,358,0.0,1.0,100,0.00,CLR,,0.00,WeatherDisplay:10.37,2013-01-01 17:41:00,
2013-01-01 09:46:00,28.9,28.9,30.50,ENE,63,0.0,1.0,100,0.00,CLR,,0.00,WeatherDisplay:10.37,2013-01-01 17:46:00,
2013-01-01 09:51:00,29.3,29.3,30.50,ENE,60,0.0,1.0,100,0.00,CLR,,0.00,WeatherDisplay:10.37,2013-01-01 17:51:00,
2013-01-01 09:56:00,29.8,29.8,30.50,NNE,19,0.0,1.0,100,0.00,CLR,,0.00,WeatherDisplay:10.37,2013-01-01 17:56:00,
2013-01-01 10:01:00,30.5,30.5,30.50,NNW,328,0.0,1.0,100,0.00,CLR,,0.00,WeatherDisplay:10.37,2013-01-01 18:01:00,
2013-01-01 10:11:00,31.7,31.7,30.50,NNW,328,0.0,0.0,100,0.00,CLR,,0.00,WeatherDisplay:10.37,2013-01-01 18:11:00,
2013-01-01 10:16:00,32.1,31.8,30.50,NNW,328,0.0,1.0,99,0.00,CLR,,0.00,WeatherDisplay:10.37,2013-01-01 18:16:00,
2013-01-01 10:21:00,32.4,31.4,30.50,North,6,0.0,2.0,96,0.00,CLR,,0.00,WeatherDisplay:10.37,2013-01-01 18:21:00,
2013-01-01 10:26:00,32.9,31.6,30.50,East,86,0.0,1.0,95,0.00,CLR,,0.00,WeatherDisplay:10.37,2013-01-01 18:26:00,
2013-01-01 10:31:00,33.2,31.7,30.50,East,86,0.0,1.0,94,0.00,CLR,,0.00,WeatherDisplay:10.37,2013-01-01 18:31:00,
2013-01-01 10:36:00,33.5,32.0,30.50,East,84,0.0,0.0,94,0.00,CLR,,0.00,WeatherDisplay:10.37,2013-01-01 18:36:00,
2013-01-01 10:41:00,33.6,31.0,30.50,ENE,69,0.0,1.0,90,0.00,CLR,,0.00,WeatherDisplay:10.37,2013-01-01 18:41:00,
2013-01-01 10:46:00,33.6,31.3,30.50,WNW,290,0.0,1.0,91,0.00,CLR,,0.00,WeatherDisplay:10.37,2013-01-01 18:46:00,
2013-01-01 10:51:00,33.9,31.2,30.50,WNW,290,0.0,1.0,90,0.00,CLR,,0.00,WeatherDisplay:10.37,2013-01-01 18:51:00,
2013-01-01 10:56:00,34.2,31.8,30.50,WNW,298,0.0,1.0,91,0.00,CLR,,0.00,WeatherDisplay:10.37,2013-01-01 18:56:00,
2013-01-01 11:01:00,34.6,31.9,30.50,ENE,67,0.0,1.0,90,0.00,CLR,,0.00,WeatherDisplay:10.37,2013-01-01 19:01:00,
2013-01-01 11:11:00,35.1,31.6,30.49,East,91,0.0,1.0,87,0.00,CLR,,0.00,WeatherDisplay:10.37,2013-01-01 19:11:00,
2013-01-01 11:16:00,35.5,32.0,30.49,SW,214,0.0,1.0,87,0.00,CLR,,0.00,WeatherDisplay:10.37,2013-01-01 19:16:00,
2013-01-01 11:21:00,35.7,31.9,30.48,SSW,199,0.0,1.0,86,0.00,CLR,,0.00,WeatherDisplay:10.37,2013-01-01 19:21:00,
2013-01-01 11:26:00,35.8,31.7,30.48,SW,232,0.0,2.0,85,0.00,CLR,,0.00,WeatherDisplay:10.37,2013-01-01 19:26:00,
2013-01-01 11:31:00,36.0,32.2,30.48,NNW,327,1.0,3.0,86,0.00,CLR,,0.00,WeatherDisplay:10.37,2013-01-01 19:31:00,
2013-01-01 11:36:00,36.5,32.4,30.48,North,1,0.0,2.0,85,0.00,CLR,,0.00,WeatherDisplay:10.37,2013-01-01 19:36:00,
2013-01-01 11:41:00,36.9,32.8,30.48,NNE,19,0.0,1.0,85,0.00,CLR,,0.00,WeatherDisplay:10.37,2013-01-01 19:41:00,
2013-01-01 11:46:00,37.1,33.0,30.48,NNW,333,0.0,1.0,85,0.00,CLR,,0.00,WeatherDisplay:10.37,2013-01-01 19:46:00,
2013-01-01 11:51:00,37.3,32.9,30.47,NW,310,0.0,1.0,84,0.00,CLR,,0.00,WeatherDisplay:10.37,2013-01-01 19:51:00,
2013-01-01 11:56:00,37.5,33.1,30.47,NNW,345,0.0,2.0,84,0.00,CLR,,0.00,WeatherDisplay:10.37,2013-01-01 19:56:00,
2013-01-01 12:01:00,37.5,32.8,30.47,North,354,0.0,1.0,83,0.00,CLR,,0.00,WeatherDisplay:10.37,2013-01-01 20:01:00,
2013-01-01 12:11:00,37.9,32.9,30.47,North,353,0.0,2.0,82,0.00,CLR,,0.00,WeatherDisplay:10.37,2013-01-01 20:11:00,
2013-01-01 12:16:00,37.9,32.3,30.47,NW,323,0.0,3.0,80,0.00,CLR,,0.00,WeatherDisplay:10.37,2013-01-01 20:16:00,
2013-01-01 12:21:00,38.0,32.7,30.46,NNW,336,0.0,2.0,81,0.00,CLR,,0.00,WeatherDisplay:10.37,2013-01-01 20:21:00,
2013-01-01 12:26:00,38.3,32.9,30.46,NNW,338,0.0,2.0,81,0.00,CLR,,0.00,WeatherDisplay:10.37,2013-01-01 20:26:00,
2013-01-01 12:31:00,38.4,32.8,30.46,North,354,0.0,1.0,80,0.00,CLR,,0.00,WeatherDisplay:10.37,2013-01-01 20:31:00,
2013-01-01 12:36:00,38.5,32.9,30.46,North,357,0.0,1.0,80,0.00,CLR,,0.00,WeatherDisplay:10.37,2013-01-01 20:36:00,
2013-01-01 12:41:00,38.6,32.9,30.46,WNW,287,0.0,1.0,80,0.00,CLR,,0.00,WeatherDisplay:10.37,2013-01-01 20:41:00,
2013-01-01 12:46:00,38.7,33.1,30.46,NW,313,0.0,2.0,80,0.00,CLR,,0.00,WeatherDisplay:10.37,2013-01-01 20:46:00,
2013-01-01 12:51:00,38.6,32.6,30.45,North,11,1.0,1.0,79,0.00,CLR,,0.00,WeatherDisplay:10.37,2013-01-01 20:51:00,
2013-01-01 12:56:00,38.6,33.0,30.45,NNW,346,0.0,2.0,80,0.00,CLR,,0.00,WeatherDisplay:10.37,2013-01-01 20:56:00,
2013-01-01 13:01:00,38.7,33.1,30.45,NNW,334,0.0,1.0,80,0.00,CLR,,0.00,WeatherDisplay:10.37,2013-01-01 21:01:00,
2013-01-01 13:11:00,38.9,33.3,30.45,NNE,15,1.0,4.0,80,0.00,CLR,,0.00,WeatherDisplay:10.37,2013-01-01 21:11:00,
2013-01-01 13:21:00,39.1,33.1,30.45,East,80,0.0,2.0,79,0.00,CLR,,0.00,WeatherDisplay:10.37,2013-01-01 21:21:00,
2013-01-01 13:26:00,39.1,33.1,30.45,NNW,334,0.0,1.0,79,0.00,CLR,,0.00,WeatherDisplay:10.37,2013-01-01 21:26:00,
2013-01-01 13:31:00,39.1,33.1,30.45,NW,312,0.0,1.0,79,0.00,CLR,,0.00,WeatherDisplay:10.37,2013-01-01 21:31:00,
2013-01-01 13:36:00,39.1,32.8,30.44,NNW,339,0.0,2.0,78,0.00,CLR,,0.00,WeatherDisplay:10.37,2013-01-01 21:36:00,
2013-01-01 13:41:00,39.2,32.6,30.44,ENE,63,0.0,1.0,77,0.00,CLR,,0.00,WeatherDisplay:10.37,2013-01-01 21:41:00,
2013-01-01 13:46:00,39.3,33.3,30.44,ENE,73,0.0,1.0,79,0.00,CLR,,0.00,WeatherDisplay:10.37,2013-01-01 21:46:00,
2013-01-01 13:51:00,39.3,33.3,30.44,NNW,344,0.0,2.0,79,0.00,CLR,,0.00,WeatherDisplay:10.37,2013-01-01 21:51:00,
2013-01-01 13:56:00,39.4,33.4,30.44,East,90,0.0,2.0,79,0.00,CLR,,0.00,WeatherDisplay:10.37,2013-01-01 21:56:00,
2013-01-01 14:01:00,39.4,33.4,30.45,East,101,1.0,2.0,79,0.00,CLR,,0.00,WeatherDisplay:10.37,2013-01-01 22:01:00,
2013-01-01 14:11:00,39.5,33.8,30.45,East,101,0.0,1.0,80,0.00,CLR,,0.00,WeatherDisplay:10.37,2013-01-01 22:11:00,
2013-01-01 14:16:00,39.5,33.8,30.45,NE,53,0.0,1.0,80,0.00,CLR,,0.00,WeatherDisplay:10.37,2013-01-01 22:16:00,
2013-01-01 14:21:00,39.5,34.2,30.45,East,95,1.0,2.0,81,0.00,CLR,,0.00,WeatherDisplay:10.37,2013-01-01 22:21:00,
2013-01-01 14:26:00,39.5,33.8,30.45,ESE,107,0.0,2.0,80,0.00,CLR,,0.00,WeatherDisplay:10.37,2013-01-01 22:26:00,
2013-01-01 14:31:00,39.5,33.5,30.45,ESE,103,0.0,3.0,79,0.00,CLR,,0.00,WeatherDisplay:10.37,2013-01-01 22:31:00,
2013-01-01 14:36:00,39.5,33.8,30.45,East,100,0.0,1.0,80,0.00,CLR,,0.00,WeatherDisplay:10.37,2013-01-01 22:36:00,
2013-01-01 14:41:00,39.5,34.2,30.44,East,93,0.0,1.0,81,0.00,CLR,,0.00,WeatherDisplay:10.37,2013-01-01 22:41:00,
2013-01-01 14:46:00,39.4,34.1,30.44,East,80,1.0,2.0,81,0.00,CLR,,0.00,WeatherDisplay:10.37,2013-01-01 22:46:00,
2013-01-01 14:51:00,39.3,34.3,30.44,East,82,0.0,1.0,82,0.00,CLR,,0.00,WeatherDisplay:10.37,2013-01-01 22:51:00,
2013-01-01 14:56:00,39.3,34.2,30.44,NNE,25,0.0,1.0,82,0.00,CLR,,0.00,WeatherDisplay:10.37,2013-01-01 22:56:00,
2013-01-01 15:01:00,39.1,34.4,30.44,NNE,13,1.0,2.0,83,0.00,CLR,,0.00,WeatherDisplay:10.37,2013-01-01 23:01:00,
2013-01-01 15:11:00,38.8,34.7,30.44,ENE,60,0.0,2.0,85,0.00,CLR,,0.00,WeatherDisplay:10.37,2013-01-01 23:11:00,
2013-01-01 15:16:00,38.5,34.4,30.44,ENE,75,1.0,1.0,85,0.00,CLR,,0.00,WeatherDisplay:10.37,2013-01-01 23:16:00,
2013-01-01 15:21:00,38.3,34.5,30.44,ENE,73,0.0,1.0,86,0.00,CLR,,0.00,WeatherDisplay:10.37,2013-01-01 23:21:00,
2013-01-01 15:26:00,38.0,34.2,30.44,ENE,62,0.0,1.0,86,0.00,CLR,,0.00,WeatherDisplay:10.37,2013-01-01 23:26:00,
2013-01-01 15:31:00,37.8,34.0,30.43,ENE,68,0.0,2.0,86,0.00,CLR,,0.00,WeatherDisplay:10.37,2013-01-01 23:31:00,
2013-01-01 15:36:00,37.6,33.5,30.43,ENE,72,0.0,2.0,85,0.00,CLR,,0.00,WeatherDisplay:10.37,2013-01-01 23:36:00,
2013-01-01 15:41:00,37.3,33.2,30.43,East,98,0.0,1.0,85,0.00,CLR,,0.00,WeatherDisplay:10.37,2013-01-01 23:41:00,
2013-01-01 15:46:00,37.1,33.0,30.43,ESE,110,0.0,0.0,85,0.00,CLR,,0.00,WeatherDisplay:10.37,2013-01-01 23:46:00,
2013-01-01 15:51:00,36.9,33.1,30.43,ESE,110,0.0,0.0,86,0.00,CLR,,0.00,WeatherDisplay:10.37,2013-01-01 23:51:00,
2013-01-01 15:56:00,36.5,32.5,30.43,ESE,110,0.0,0.0,85,0.00,CLR,,0.00,WeatherDisplay:10.37,2013-01-01 23:56:00,
2013-01-01 16:01:00,36.3,32.5,30.43,ESE,110,0.0,1.0,86,0.00,CLR,,0.00,WeatherDisplay:10.37,2013-01-02 00:01:00,
2013-01-01 16:11:00,35.8,32.3,30.43,ESE,111,0.0,0.0,87,0.00,CLR,,0.00,WeatherDisplay:10.37,2013-01-02 00:11:00,
2013-01-01 16:16:00,35.5,32.0,30.43,ESE,111,0.0,0.0,87,0.00,CLR,,0.00,WeatherDisplay:10.37,2013-01-02 00:16:00,
2013-01-01 16:21:00,35.3,32.1,30.43,ESE,111,0.0,0.0,88,0.00,CLR,,0.00,WeatherDisplay:10.37,2013-01-02 00:21:00,
2013-01-01 16:26:00,35.1,31.9,30.43,ESE,111,0.0,0.0,88,0.00,CLR,,0.00,WeatherDisplay:10.37,2013-01-02 00:26:00,
2013-01-01 16:31:00,34.9,31.7,30.43,ESE,111,0.0,0.0,88,0.00,CLR,,0.00,WeatherDisplay:10.37,2013-01-02 00:31:00,
2013-01-01 16:36:00,34.5,31.6,30.43,ESE,111,0.0,1.0,89,0.00,CLR,,0.00,WeatherDisplay:10.37,2013-01-02 00:36:00,
2013-01-01 16:41:00,34.2,31.6,30.43,ESE,111,0.0,1.0,90,0.00,CLR,,0.00,WeatherDisplay:10.37,2013-01-02 00:41:00,
2013-01-01 16:46:00,33.9,31.3,30.43,ESE,111,0.0,0.0,90,0.00,CLR,,0.00,WeatherDisplay:10.37,2013-01-02 00:46:00,
2013-01-01 16:56:00,33.5,31.2,30.43,ESE,111,0.0,0.0,91,0.00,CLR,,0.00,WeatherDisplay:10.37,2013-01-02 00:56:00,
2013-01-01 17:01:00,33.2,30.9,30.43,ESE,112,0.0,0.0,91,0.00,CLR,,0.00,WeatherDisplay:10.37,2013-01-02 01:01:00,
2013-01-01 17:11:00,32.9,30.8,30.42,ESE,111,0.0,0.0,92,0.00,CLR,,0.00,WeatherDisplay:10.37,2013-01-02 01:11:00,
2013-01-01 17:16:00,32.8,30.7,30.42,ESE,111,0.0,0.0,92,0.00,CLR,,0.00,WeatherDisplay:10.37,2013-01-02 01:16:00,
2013-01-01 17:21:00,32.5,30.5,30.42,ESE,111,0.0,0.0,92,0.00,CLR,,0.00,WeatherDisplay:10.37,2013-01-02 01:21:00,
2013-01-01 17:26:00,32.4,30.6,30.42,ESE,111,0.0,0.0,93,0.00,CLR,,0.00,WeatherDisplay:10.37,2013-01-02 01:26:00,
2013-01-01 17:31:00,32.2,30.4,30.42,ESE,111,0.0,0.0,93,0.00,CLR,,0.00,WeatherDisplay:10.37,2013-01-02 01:31:00,
2013-01-01 17:36:00,32.1,30.3,30.42,ESE,111,0.0,1.0,93,0.00,CLR,,0.00,WeatherDisplay:10.37,2013-01-02 01:36:00,
2013-01-01 17:41:00,32.0,30.5,30.42,ESE,112,0.0,0.0,94,0.00,CLR,,0.00,WeatherDisplay:10.37,2013-01-02 01:41:00,
2013-01-01 17:46:00,32.0,30.5,30.42,ESE,112,0.0,0.0,94,0.00,CLR,,0.00,WeatherDisplay:10.37,2013-01-02 01:46:00,
2013-01-01 17:51:00,31.9,30.4,30.42,ESE,112,0.0,0.0,94,0.00,CLR,,0.00,WeatherDisplay:10.37,2013-01-02 01:51:00,
2013-01-01 17:56:00,31.7,30.2,30.41,ESE,112,0.0,0.0,94,0.00,CLR,,0.00,WeatherDisplay:10.37,2013-01-02 01:56:00,
2013-01-01 18:01:00,31.7,30.2,30.41,ESE,112,0.0,0.0,94,0.00,CLR,,0.00,WeatherDisplay:10.37,2013-01-02 02:01:00,
2013-01-01 18:11:00,31.4,29.9,30.41,ESE,112,0.0,0.0,94,0.00,CLR,,0.00,WeatherDisplay:10.37,2013-01-02 02:11:00,
2013-01-01 18:16:00,31.2,29.7,30.41,ESE,112,0.0,0.0,94,0.00,CLR,,0.00,WeatherDisplay:10.37,2013-01-02 02:16:00,
2013-01-01 18:21:00,31.1,29.8,30.41,ESE,112,0.0,0.0,95,0.00,CLR,,0.00,WeatherDisplay:10.37,2013-01-02 02:21:00,
2013-01-01 18:26:00,31.0,29.7,30.40,ESE,111,0.0,0.0,95,0.00,CLR,,0.00,WeatherDisplay:10.37,2013-01-02 02:26:00,
2013-01-01 18:31:00,30.8,29.5,30.40,ESE,112,0.0,0.0,95,0.00,CLR,,0.00,WeatherDisplay:10.37,2013-01-02 02:31:00,
2013-01-01 18:36:00,30.7,29.4,30.40,ESE,112,0.0,0.0,95,0.00,CLR,,0.00,WeatherDisplay:10.37,2013-01-02 02:36:00,
2013-01-01 18:41:00,30.5,29.2,30.40,ESE,111,0.0,0.0,95,0.00,CLR,,0.00,WeatherDisplay:10.37,2013-01-02 02:41:00,
2013-01-01 18:46:00,30.4,29.1,30.40,ESE,112,0.0,0.0,95,0.00,CLR,,0.00,WeatherDisplay:10.37,2013-01-02 02:46:00,
2013-01-01 18:51:00,30.4,29.4,30.39,ESE,112,0.0,1.0,96,0.00,CLR,,0.00,WeatherDisplay:10.37,2013-01-02 02:51:00,
2013-01-01 18:56:00,30.3,29.3,30.39,ESE,111,0.0,1.0,96,0.00,CLR,,0.00,WeatherDisplay:10.37,2013-01-02 02:56:00,
2013-01-01 19:01:00,30.2,29.2,30.39,ESE,111,0.0,0.0,96,0.00,CLR,,0.00,WeatherDisplay:10.37,2013-01-02 03:01:00,
2013-01-01 19:11:00,30.1,29.1,30.39,ESE,111,0.0,0.0,96,0.00,CLR,,0.00,WeatherDisplay:10.37,2013-01-02 03:11:00,
2013-01-01 19:16:00,30.0,29.0,30.38,ESE,112,0.0,0.0,96,0.00,CLR,,0.00,WeatherDisplay:10.37,2013-01-02 03:16:00,
2013-01-01 19:21:00,29.9,28.9,30.38,ESE,112,0.0,0.0,96,0.00,CLR,,0.00,WeatherDisplay:10.37,2013-01-02 03:21:00,
2013-01-01 19:26:00,29.9,28.9,30.39,ESE,112,0.0,0.0,96,0.00,CLR,,0.00,WeatherDisplay:10.37,2013-01-02 03:26:00,
2013-01-01 19:31:00,29.8,28.8,30.38,ESE,112,0.0,0.0,96,0.00,CLR,,0.00,WeatherDisplay:10.37,2013-01-02 03:31:00,
2013-01-01 19:36:00,29.8,28.8,30.38,ESE,111,0.0,1.0,96,0.00,CLR,,0.00,WeatherDisplay:10.37,2013-01-02 03:36:00,
2013-01-01 19:41:00,29.8,28.8,30.38,ESE,112,0.0,0.0,96,0.00,CLR,,0.00,WeatherDisplay:10.37,2013-01-02 03:41:00,
2013-01-01 19:46:00,29.7,28.7,30.38,ESE,112,0.0,0.0,96,0.00,CLR,,0.00,WeatherDisplay:10.37,2013-01-02 03:46:00,
2013-01-01 19:51:00,29.7,29.0,30.38,ESE,112,0.0,0.0,97,0.00,CLR,,0.00,WeatherDisplay:10.37,2013-01-02 03:51:00,
2013-01-01 19:56:00,29.6,28.6,30.38,ESE,112,0.0,0.0,96,0.00,CLR,,0.00,WeatherDisplay:10.37,2013-01-02 03:56:00,
2013-01-01 20:01:00,29.5,28.5,30.38,ESE,112,0.0,0.0,96,0.00,CLR,,0.00,WeatherDisplay:10.37,2013-01-02 04:01:00,
2013-01-01 20:11:00,29.4,28.7,30.38,ESE,112,0.0,1.0,97,0.00,CLR,,0.00,WeatherDisplay:10.37,2013-01-02 04:11:00,
2013-01-01 20:16:00,29.2,28.2,30.38,ESE,112,0.0,0.0,96,0.00,CLR,,0.00,WeatherDisplay:10.37,2013-01-02 04:16:00,
2013-01-01 20:21:00,29.1,28.4,30.38,ESE,111,0.0,0.0,97,0.00,CLR,,0.00,WeatherDisplay:10.37,2013-01-02 04:21:00,
2013-01-01 20:26:00,29.0,28.3,30.38,ESE,112,0.0,0.0,97,0.00,CLR,,0.00,WeatherDisplay:10.37,2013-01-02 04:26:00,
2013-01-01 20:31:00,28.9,28.2,30.38,ESE,112,0.0,0.0,97,0.00,CLR,,0.00,WeatherDisplay:10.37,2013-01-02 04:31:00,
2013-01-01 20:36:00,28.9,28.1,30.38,ESE,111,0.0,0.0,97,0.00,CLR,,0.00,WeatherDisplay:10.37,2013-01-02 04:36:00,
2013-01-01 20:41:00,28.8,28.1,30.38,ESE,111,0.0,0.0,97,0.00,CLR,,0.00,WeatherDisplay:10.37,2013-01-02 04:41:00,
2013-01-01 20:46:00,28.8,28.0,30.38,ESE,111,0.0,0.0,97,0.00,CLR,,0.00,WeatherDisplay:10.37,2013-01-02 04:46:00,
2013-01-01 20:56:00,28.7,28.0,30.38,ESE,111,0.0,1.0,97,0.00,CLR,,0.00,WeatherDisplay:10.37,2013-01-02 04:56:00,
2013-01-01 21:01:00,28.7,28.0,30.38,ESE,112,0.0,0.0,97,0.00,CLR,,0.00,WeatherDisplay:10.37,2013-01-02 05:01:00,
2013-01-01 21:06:00,28.6,27.9,30.38,ESE,112,0.0,1.0,97,0.00,CLR,,0.00,WeatherDisplay:10.37,2013-01-02 05:06:00,
2013-01-01 21:11:00,28.6,27.8,30.38,ESE,112,0.0,0.0,97,0.00,CLR,,0.00,WeatherDisplay:10.37,2013-01-02 05:11:00,
2013-01-01 21:16:00,28.6,27.8,30.38,ESE,112,0.0,0.0,97,0.00,CLR,,0.00,WeatherDisplay:10.37,2013-01-02 05:16:00,
2013-01-01 21:21:00,28.5,27.8,30.38,ESE,112,0.0,0.0,97,0.00,CLR,,0.00,WeatherDisplay:10.37,2013-01-02 05:21:00,
2013-01-01 21:26:00,28.5,27.7,30.38,ESE,112,0.0,0.0,97,0.00,CLR,,0.00,WeatherDisplay:10.37,2013-01-02 05:26:00,
2013-01-01 21:31:00,28.6,28.6,30.38,ESE,113,0.0,2.0,100,0.00,CLR,,0.00,WeatherDisplay:10.37,2013-01-02 05:31:00,
2013-01-01 21:36:00,29.2,29.2,30.38,SE,127,0.0,1.0,100,0.00,CLR,,0.00,WeatherDisplay:10.37,2013-01-02 05:36:00,
2013-01-01 21:41:00,29.4,29.4,30.38,WSW,243,0.0,1.0,100,0.00,CLR,,0.00,WeatherDisplay:10.37,2013-01-02 05:41:00,
2013-01-01 21:46:00,29.6,29.6,30.38,WSW,243,0.0,0.0,100,0.00,CLR,,0.00,WeatherDisplay:10.37,2013-01-02 05:46:00,
2013-01-01 21:51:00,29.6,29.6,30.38,WSW,243,0.0,0.0,100,0.00,CLR,,0.00,WeatherDisplay:10.37,2013-01-02 05:51:00,
2013-01-01 21:56:00,29.4,29.4,30.38,WSW,243,0.0,0.0,100,0.00,CLR,,0.00,WeatherDisplay:10.37,2013-01-02 05:56:00,
2013-01-01 22:01:00,29.1,28.6,30.38,WSW,243,0.0,0.0,98,0.00,CLR,,0.00,WeatherDisplay:10.37,2013-01-02 06:01:00,
2013-01-01 22:11:00,28.8,28.1,30.37,WSW,246,0.0,0.0,97,0.00,CLR,,0.00,WeatherDisplay:10.37,2013-01-02 06:11:00,
2013-01-01 22:16:00,28.8,28.8,30.37,WSW,250,0.0,1.0,100,0.00,CLR,,0.00,WeatherDisplay:10.37,2013-01-02 06:16:00,
2013-01-01 22:21:00,28.8,28.8,30.37,WSW,252,0.0,0.0,100,0.00,CLR,,0.00,WeatherDisplay:10.37,2013-01-02 06:21:00,
2013-01-01 22:26:00,28.7,28.7,30.37,WSW,252,0.0,0.0,100,0.00,CLR,,0.00,WeatherDisplay:10.37,2013-01-02 06:26:00,
2013-01-01 22:31:00,28.5,27.8,30.37,WSW,252,0.0,1.0,97,0.00,CLR,,0.00,WeatherDisplay:10.37,2013-01-02 06:31:00,
2013-01-01 22:36:00,28.7,28.7,30.36,SSW,196,0.0,1.0,100,0.00,CLR,,0.00,WeatherDisplay:10.37,2013-01-02 06:36:00,
2013-01-01 22:41:00,28.6,28.6,30.37,SSE,166,0.0,1.0,100,0.00,CLR,,0.00,WeatherDisplay:10.37,2013-01-02 06:41:00,
2013-01-01 22:46:00,28.5,28.5,30.36,South,179,0.0,1.0,100,0.00,CLR,,0.00,WeatherDisplay:10.37,2013-01-02 06:46:00,
2013-01-01 22:51:00,28.6,28.6,30.36,SSW,208,0.0,1.0,100,0.00,CLR,,0.00,WeatherDisplay:10.37,2013-01-02 06:51:00,
2013-01-01 22:56:00,28.5,28.5,30.36,SSW,208,0.0,0.0,100,0.00,CLR,,0.00,WeatherDisplay:10.37,2013-01-02 06:56:00,
2013-01-01 23:01:00,28.3,27.8,30.36,SSW,208,0.0,0.0,98,0.00,CLR,,0.00,WeatherDisplay:10.37,2013-01-02 07:01:00,
2013-01-01 23:11:00,28.0,27.3,30.36,SSW,207,0.0,0.0,97,0.00,CLR,,0.00,WeatherDisplay:10.37,2013-01-02 07:11:00,
2013-01-01 23:21:00,27.8,27.1,30.36,SSW,208,0.0,0.0,97,0.00,CLR,,0.00,WeatherDisplay:10.37,2013-01-02 07:21:00,
2013-01-01 23:26:00,27.7,27.0,30.36,SSW,208,0.0,0.0,97,0.00,CLR,,0.00,WeatherDisplay:10.37,2013-01-02 07:26:00,
2013-01-01 23:31:00,27.7,27.7,30.36,SSW,208,0.0,1.0,100,0.00,CLR,,0.00,WeatherDisplay:10.37,2013-01-02 07:31:00,
2013-01-01 23:36:00,27.7,27.7,30.36,SSW,208,0.0,1.0,100,0.00,CLR,,0.00,WeatherDisplay:10.37,2013-01-02 07:36:00,
2013-01-01 23:41:00,27.6,27.6,30.36,SSW,208,0.0,0.0,100,0.00,CLR,,0.00,WeatherDisplay:10.37,2013-01-02 07:41:00,
2013-01-01 23:46:00,27.8,27.8,30.36,SSW,208,0.0,0.0,100,0.00,CLR,,0.00,WeatherDisplay:10.37,2013-01-02 07:46:00,
2013-01-01 23:51:00,27.8,27.8,30.36,SSW,208,0.0,0.0,100,0.00,CLR,,0.00,WeatherDisplay:10.37,2013-01-02 07:51:00,
2013-01-01 23:56:00,27.8,27.8,30.36,SW,233,0.0,0.0,100,0.00,CLR,,0.00,WeatherDisplay:10.37,2013-01-02 07:56:00,